"startDT [UTC]","vpos","CH4 [ppm]","stdev(CH4) [ppm]","CO2 [ppm]","stdev(CO2) [ppm]","H2O [ppm]","stdev(H2O)","p_LGR [torr]","T_LGR [C]","mt1_LGR [us]","mt2_LGR [us]","T_ECpre [C]","T_EC1 [C]","T_EC2 [C]","p_inlet [hPa]","p_in [hPa]","p_out [hPa]","T_inlet [C]","RH_inlet [%]","dwpt_inlet [C]","T_vent [C]","RH_vent [%]","dwpt_vent [C]","flow_vent [l min-1]","flow_inlet [l min-1]","dwpt_sample [C]","T_room [C]"
2013-04-16 00:00:00,0.0,1.9191,0.0011,406.30,0.30,198.0,33.4,138.12,27.89,24.64,36.36,0.04,-272.76,-272.76,-39,556,-937,21.8,5.2,-19.1,22.0,5.3,-18.7,5.73,2.42,-24.8,27.3
2013-04-16 00:01:00,0.0,1.9190,0.0007,406.29,0.29,183.0,30.8,138.12,27.90,24.64,36.36,0.04,-272.76,-272.75,-40,557,-938,21.8,5.2,-19.1,22.0,5.3,-18.7,5.73,2.43,-24.8,27.3
2013-04-16 00:02:00,0.0,1.9192,0.0010,406.26,0.29,193.6,34.9,138.12,27.89,24.64,36.36,0.04,-272.76,-272.76,-40,557,-938,21.8,5.1,-19.2,22.0,5.2,-18.8,5.73,2.42,-24.8,27.3
2013-04-16 00:03:00,0.0,1.9190,0.0009,406.25,0.33,194.1,28.1,138.12,27.89,24.64,36.36,0.04,-272.77,-272.77,-40,557,-938,21.8,5.2,-19.1,22.0,5.3,-18.8,5.73,2.42,-24.8,27.3
2013-04-16 00:04:00,0.0,1.9186,0.0009,406.19,0.27,196.4,26.7,138.12,27.89,24.64,36.36,0.04,-272.76,-272.76,-40,555,-938,21.9,5.3,-18.8,22.0,5.4,-18.5,5.73,2.42,-24.8,27.3
2013-04-16 00:05:00,0.0,1.9189,0.0007,406.34,0.29,183.2,41.8,138.12,27.89,24.64,36.35,0.04,-272.76,-272.76,-40,555,-938,21.8,5.3,-18.8,22.0,5.4,-18.5,5.73,2.42,-24.8,27.3
2013-04-16 00:06:00,0.0,1.9191,0.0009,406.33,0.26,182.0,33.7,138.12,27.89,24.64,36.36,0.04,-272.76,-272.77,-40,556,-937,21.9,5.4,-18.6,22.0,5.5,-18.3,5.73,2.43,-24.8,27.4
2013-04-16 00:07:00,0.0,1.9193,0.0008,406.35,0.24,179.2,28.2,138.12,27.89,24.64,36.35,0.04,-272.75,-272.76,-40,556,-938,21.9,5.4,-18.6,22.0,5.5,-18.3,5.73,2.42,-24.8,27.3
2013-04-16 00:08:00,0.0,1.9191,0.0010,406.36,0.25,190.6,31.3,138.12,27.90,24.64,36.35,0.04,-272.76,-272.76,-40,556,-937,21.9,5.4,-18.5,22.0,5.5,-18.2,5.73,2.42,-24.8,27.3
2013-04-16 00:09:00,0.0,1.9189,0.0010,406.32,0.30,193.8,32.6,138.12,27.90,24.64,36.36,0.04,-272.76,-272.76,-40,556,-938,21.9,5.5,-18.4,22.0,5.6,-18.1,5.73,2.42,-24.8,27.3
2013-04-16 00:10:00,0.0,1.9189,0.0008,406.27,0.27,194.3,28.4,138.12,27.90,24.64,36.36,0.04,-272.76,-272.76,-40,556,-938,21.9,5.5,-18.3,22.1,5.6,-18.0,5.73,2.42,-24.8,27.3
2013-04-16 00:11:00,0.0,1.9192,0.0008,406.29,0.27,197.3,34.4,138.12,27.90,24.64,36.36,0.04,-272.76,-272.76,-40,556,-938,21.9,5.5,-18.2,22.0,5.6,-17.9,5.73,2.42,-24.8,27.4
2013-04-16 00:12:00,0.0,1.9191,0.0010,406.30,0.30,193.8,36.1,138.12,27.89,24.64,36.36,0.04,-272.76,-272.76,-40,556,-938,21.9,5.6,-18.2,22.1,5.7,-17.9,5.73,2.42,-24.8,27.4
2013-04-16 00:13:00,0.0,1.9191,0.0010,406.33,0.30,184.5,29.7,138.12,27.89,24.64,36.35,0.04,-272.76,-272.76,-40,556,-938,21.9,5.5,-18.2,22.1,5.6,-17.9,5.73,2.42,-24.7,27.3
2013-04-16 00:14:00,0.0,1.9188,0.0009,406.31,0.28,188.0,32.4,138.12,27.89,24.64,36.36,0.04,-272.76,-272.76,-40,556,-937,21.9,5.5,-18.3,22.1,5.6,-18.0,5.73,2.42,-24.8,27.3
2013-04-16 00:15:00,0.0,1.9189,0.0008,406.33,0.30,199.5,34.0,138.12,27.89,24.64,36.36,0.04,-272.76,-272.76,-40,556,-938,21.9,5.5,-18.3,22.1,5.6,-18.0,5.73,2.42,-24.7,27.3
2013-04-16 00:16:00,0.0,1.9187,0.0008,406.42,0.34,209.7,32.4,138.12,27.89,24.64,36.35,0.04,-272.76,-272.77,-40,556,-938,21.9,5.5,-18.3,22.1,5.6,-18.0,5.73,2.41,-24.7,27.3
2013-04-16 00:17:00,0.0,1.9192,0.0007,406.31,0.36,191.5,32.0,138.12,27.89,24.64,36.36,0.04,-272.76,-272.76,-40,556,-938,21.9,5.5,-18.4,22.1,5.6,-18.0,5.73,2.42,-24.7,27.3
2013-04-16 00:18:00,0.0,1.9189,0.0009,406.34,0.34,196.1,37.3,138.12,27.89,24.64,36.36,0.04,-272.76,-272.76,-40,556,-938,21.9,5.5,-18.4,22.1,5.6,-18.1,5.73,2.42,-24.7,27.3
2013-04-16 00:19:00,0.0,1.9190,0.0009,406.39,0.28,197.1,41.0,138.12,27.89,24.64,36.35,0.04,-272.76,-272.77,-40,556,-938,22.0,5.5,-18.4,22.1,5.6,-18.1,5.73,2.42,-24.7,27.3
2013-04-16 00:20:00,0.0,1.9187,0.0008,406.33,0.25,200.7,32.7,138.12,27.89,24.64,36.36,0.04,-272.76,-272.77,-40,556,-937,21.9,5.5,-18.4,22.1,5.6,-18.0,5.73,2.42,-24.7,27.4
2013-04-16 00:21:00,0.0,1.9189,0.0010,406.33,0.34,206.5,32.6,138.12,27.89,24.64,36.36,0.04,-272.76,-272.76,-40,556,-938,22.0,5.5,-18.4,22.1,5.6,-18.1,5.73,2.42,-24.7,27.4
2013-04-16 00:22:00,0.0,1.9192,0.0009,406.24,0.25,203.8,32.7,138.12,27.89,24.64,36.36,0.04,-272.77,-272.76,-40,556,-938,22.0,5.5,-18.4,22.1,5.6,-18.0,5.73,2.42,-24.7,27.4
2013-04-16 00:23:00,0.0,1.9191,0.0008,406.33,0.26,200.7,32.5,138.12,27.89,24.64,36.35,0.04,-272.77,-272.77,-40,556,-938,22.0,5.5,-18.4,22.1,5.6,-18.0,5.73,2.42,-24.7,27.4
2013-04-16 00:24:00,0.0,1.9189,0.0008,406.30,0.28,197.7,28.3,138.12,27.88,24.64,36.36,0.04,-272.77,-272.76,-40,556,-938,22.0,5.5,-18.4,22.1,5.6,-18.0,5.73,2.43,-24.7,27.4
2013-04-16 00:25:00,0.0,1.9191,0.0008,406.21,0.25,201.0,28.9,138.12,27.88,24.64,36.36,0.04,-272.76,-272.76,-40,556,-938,22.0,5.5,-18.4,22.1,5.6,-18.0,5.73,2.43,-24.7,27.4
2013-04-16 00:26:00,0.0,1.9194,0.0008,406.26,0.25,199.3,29.1,138.12,27.88,24.64,36.36,0.04,-272.76,-272.76,-40,556,-938,22.0,5.5,-18.3,22.1,5.6,-18.0,5.73,2.43,-24.7,27.4
2013-04-16 00:27:00,0.0,1.9187,0.0010,406.27,0.28,204.6,31.9,138.12,27.89,24.64,36.36,0.04,-272.76,-272.76,-40,556,-938,22.0,5.5,-18.3,22.1,5.6,-18.0,5.73,2.42,-24.7,27.4
2013-04-16 00:28:00,0.0,1.9191,0.0010,406.24,0.30,207.7,29.7,138.12,27.89,24.64,36.36,0.04,-272.76,-272.76,-40,557,-938,21.9,5.5,-18.3,22.1,5.6,-18.0,5.73,2.43,-24.7,27.4
2013-04-16 00:29:00,0.0,1.9195,0.0010,406.24,0.24,195.4,34.0,138.12,27.89,24.64,36.36,0.04,-272.76,-272.76,-40,556,-938,22.0,5.5,-18.3,22.1,5.6,-18.0,5.73,2.43,-24.7,27.5
2013-04-16 00:30:00,0.0,1.9194,0.0010,406.22,0.25,202.8,32.5,138.12,27.90,24.64,36.36,0.04,-272.76,-272.76,-40,557,-938,22.0,5.5,-18.3,22.1,5.6,-18.0,5.73,2.43,-24.7,27.4
2013-04-16 00:31:00,0.0,1.9194,0.0009,406.32,0.32,199.4,37.8,138.12,27.90,24.64,36.36,0.04,-272.76,-272.77,-40,557,-938,22.0,5.5,-18.3,22.1,5.6,-18.0,5.73,2.43,-24.7,27.4
2013-04-16 00:32:00,0.0,1.9193,0.0007,406.26,0.26,201.4,40.9,138.12,27.90,24.64,36.36,0.04,-272.77,-272.76,-40,557,-938,22.0,5.5,-18.3,22.1,5.6,-18.0,5.73,2.43,-24.7,27.4
2013-04-16 00:33:00,0.0,1.9190,0.0007,406.33,0.31,197.8,29.7,138.12,27.90,24.64,36.36,0.04,-272.77,-272.76,-40,557,-938,22.0,5.5,-18.2,22.1,5.6,-17.9,5.73,2.43,-24.7,27.5
2013-04-16 00:34:00,0.0,1.9189,0.0008,406.31,0.30,200.2,29.9,138.12,27.90,24.64,36.36,0.04,-272.76,-272.77,-40,557,-938,22.0,5.5,-18.2,22.1,5.6,-17.9,5.73,2.43,-24.7,27.4
2013-04-16 00:35:00,0.0,1.9190,0.0008,406.38,0.31,206.9,26.5,138.12,27.90,24.64,36.36,0.04,-272.77,-272.75,-40,556,-939,22.0,5.5,-18.2,22.1,5.7,-17.8,5.73,2.43,-24.7,27.5
2013-04-16 00:36:00,0.0,1.9187,0.0008,406.35,0.28,209.1,30.1,138.12,27.90,24.65,36.35,0.04,-272.77,-272.76,-40,557,-938,22.0,5.5,-18.2,22.1,5.6,-17.9,5.73,2.43,-24.7,27.5
2013-04-16 00:37:00,0.0,1.9194,0.0008,406.37,0.30,206.0,36.9,138.12,27.91,24.64,36.36,0.04,-272.76,-272.76,-40,557,-938,22.0,5.5,-18.3,22.2,5.6,-17.9,5.73,2.44,-24.6,27.5
2013-04-16 00:38:00,0.0,1.9188,0.0009,406.42,0.28,198.4,32.7,138.12,27.91,24.65,36.35,0.04,-272.76,-272.77,-40,557,-938,22.0,5.5,-18.3,22.2,5.6,-17.9,5.73,2.43,-24.6,27.4
2013-04-16 00:39:00,0.0,1.9192,0.0008,406.45,0.28,206.8,30.2,138.12,27.90,24.64,36.35,0.04,-272.77,-272.76,-40,557,-938,22.0,5.5,-18.3,22.2,5.6,-17.9,5.73,2.43,-24.6,27.5
2013-04-16 00:40:00,0.0,1.9187,0.0010,406.30,0.27,206.9,32.8,138.12,27.91,24.65,36.36,0.04,-272.76,-272.77,-40,557,-938,22.0,5.5,-18.3,22.2,5.6,-17.9,5.73,2.43,-24.6,27.5
2013-04-16 00:41:00,0.0,1.9188,0.0009,406.27,0.25,204.2,32.7,138.12,27.91,24.64,36.36,0.04,-272.76,-272.76,-40,557,-939,22.0,5.5,-18.2,22.2,5.6,-17.9,5.73,2.43,-24.6,27.5
2013-04-16 00:42:00,0.0,1.9187,0.0007,406.26,0.27,205.0,30.0,138.12,27.91,24.64,36.36,0.04,-272.76,-272.75,-40,557,-937,22.0,5.5,-18.2,22.2,5.6,-17.9,5.73,2.43,-24.6,27.4
2013-04-16 00:43:00,0.0,1.9190,0.0010,406.36,0.23,203.2,33.8,138.12,27.91,24.64,36.36,0.04,-272.76,-272.77,-40,557,-937,22.0,5.5,-18.2,22.2,5.6,-17.9,5.73,2.42,-24.6,27.4
2013-04-16 00:44:00,0.0,1.9188,0.0010,406.33,0.29,201.5,33.2,138.12,27.91,24.64,36.36,0.04,-272.76,-272.76,-39,557,-937,22.0,5.5,-18.2,22.2,5.6,-17.9,5.73,2.42,-24.6,27.5
2013-04-16 00:45:00,0.0,1.9188,0.0009,406.28,0.25,208.4,26.3,138.12,27.92,24.64,36.36,0.04,-272.75,-272.77,-39,557,-938,22.1,5.5,-18.2,22.2,5.6,-17.9,5.73,2.42,-24.6,27.5
2013-04-16 00:46:00,0.0,1.9187,0.0008,406.24,0.21,207.5,34.5,138.12,27.92,24.64,36.36,0.04,-272.76,-272.76,-39,556,-938,22.1,5.5,-18.2,22.2,5.6,-17.9,5.73,2.42,-24.6,27.5
2013-04-16 00:47:00,0.0,1.9187,0.0010,406.31,0.23,206.7,26.0,138.12,27.92,24.65,36.36,0.04,-272.76,-272.77,-40,556,-939,22.1,5.5,-18.2,22.2,5.6,-17.9,5.73,2.42,-24.6,27.5
2013-04-16 00:48:00,0.0,1.9185,0.0010,406.26,0.30,217.7,31.6,138.12,27.92,24.65,36.37,0.04,-272.76,-272.77,-41,561,-939,22.1,5.5,-18.2,22.2,5.6,-17.8,5.73,2.42,-24.6,27.5
2013-04-16 00:49:00,0.0,1.9190,0.0007,406.44,0.26,205.5,29.4,138.12,27.93,24.64,36.36,0.04,-272.75,-272.76,-40,555,-938,22.1,5.5,-18.2,22.2,5.6,-17.8,5.73,2.41,-24.6,27.5
2013-04-16 00:50:00,0.0,1.9189,0.0009,406.36,0.29,210.4,31.9,138.12,27.93,24.64,36.36,0.04,-272.76,-272.76,-40,557,-938,22.1,5.5,-18.2,22.2,5.6,-17.8,5.73,2.42,-24.6,27.5
2013-04-16 00:51:00,0.0,1.9189,0.0009,406.30,0.30,212.6,32.0,138.12,27.93,24.64,36.36,0.04,-272.76,-272.76,-40,557,-938,22.1,5.5,-18.2,22.3,5.6,-17.8,5.73,2.42,-24.5,27.5
2013-04-16 00:52:00,0.0,1.9190,0.0008,406.42,0.29,210.1,34.7,138.12,27.93,24.64,36.36,0.04,-272.76,-272.76,-40,557,-939,22.1,5.5,-18.2,22.2,5.6,-17.8,5.73,2.41,-24.5,27.5
2013-04-16 00:53:00,0.0,1.9187,0.0009,406.28,0.26,215.5,32.7,138.12,27.93,24.64,36.36,0.04,-272.77,-272.76,-40,557,-938,22.1,5.5,-18.2,22.3,5.6,-17.9,5.73,2.42,-24.5,27.5
2013-04-16 00:54:00,0.0,1.9187,0.0008,406.29,0.31,218.4,30.4,138.12,27.93,24.64,36.37,0.04,-272.76,-272.76,-40,557,-938,22.1,5.5,-18.2,22.3,5.6,-17.8,5.73,2.41,-24.5,27.5
2013-04-16 00:55:00,0.0,1.9188,0.0008,406.31,0.32,218.9,30.6,138.11,27.94,24.65,36.36,0.04,-272.76,-272.76,-40,557,-938,22.1,5.5,-18.1,22.3,5.6,-17.8,5.73,2.41,-24.5,27.6
2013-04-16 00:56:00,0.0,1.9188,0.0008,406.26,0.29,215.0,31.5,138.11,27.94,24.64,36.36,0.04,-272.76,-272.76,-40,557,-938,22.1,5.5,-18.2,22.3,5.6,-17.8,5.73,2.42,-24.5,27.6
2013-04-16 00:57:00,0.0,1.9188,0.0009,406.26,0.28,215.1,26.1,138.12,27.94,24.64,36.36,0.04,-272.76,-272.76,-40,557,-938,22.1,5.5,-18.2,22.3,5.6,-17.9,5.73,2.42,-24.5,27.6
2013-04-16 00:58:00,0.0,1.9188,0.0008,406.30,0.29,211.8,31.6,138.12,27.94,24.64,36.37,0.04,-272.76,-272.76,-40,557,-938,22.1,5.4,-18.3,22.3,5.5,-18.0,5.73,2.42,-24.5,27.6
2013-04-16 00:59:00,0.0,1.9188,0.0008,406.35,0.30,212.7,32.3,138.11,27.94,24.65,36.36,0.04,-272.76,-272.76,-40,557,-938,22.2,5.4,-18.4,22.3,5.5,-18.1,5.73,2.42,-24.5,27.6
2013-04-16 01:00:00,0.0,1.9189,0.0008,406.34,0.30,220.4,30.8,138.11,27.95,24.64,36.36,0.04,-272.77,-272.77,-40,557,-938,22.2,5.3,-18.5,22.3,5.4,-18.1,5.73,2.42,-24.5,27.6
2013-04-16 01:01:00,0.0,1.9194,0.0009,406.40,0.27,208.2,39.3,138.11,27.95,24.64,36.36,0.04,-272.76,-272.76,-40,557,-939,22.2,5.3,-18.6,22.3,5.4,-18.2,5.73,2.43,-24.5,27.6
2013-04-16 01:02:00,0.0,1.9194,0.0009,406.25,0.29,217.8,33.6,138.12,27.95,24.64,36.36,0.04,-272.76,-272.76,-40,557,-938,22.2,5.3,-18.6,22.3,5.4,-18.3,5.73,2.43,-24.5,27.6
2013-04-16 01:03:00,0.0,1.9188,0.0008,406.30,0.29,223.2,30.7,138.12,27.95,24.65,36.36,0.04,-272.76,-272.77,-40,558,-939,22.2,5.3,-18.6,22.3,5.4,-18.3,5.73,2.43,-24.5,27.6
2013-04-16 01:04:00,0.0,1.9189,0.0008,406.24,0.27,217.8,30.1,138.12,27.95,24.64,36.36,0.04,-272.76,-272.77,-40,558,-938,22.2,5.3,-18.5,22.3,5.4,-18.2,5.73,2.44,-24.4,27.5
2013-04-16 01:05:00,0.0,1.9189,0.0009,406.29,0.25,218.2,30.0,138.11,27.96,24.65,36.36,0.04,-272.76,-272.76,-40,558,-939,22.2,5.3,-18.5,22.3,5.4,-18.2,5.73,2.43,-24.4,27.6
2013-04-16 01:06:00,0.0,1.9188,0.0008,406.27,0.34,223.4,32.6,138.11,27.96,24.64,36.36,0.04,-272.76,-272.76,-40,558,-939,22.2,5.3,-18.5,22.3,5.4,-18.2,5.73,2.43,-24.5,27.6
2013-04-16 01:07:00,0.0,1.9190,0.0009,406.27,0.31,222.3,25.7,138.12,27.96,24.64,36.37,0.04,-272.76,-272.76,-40,558,-938,22.2,5.3,-18.5,22.4,5.4,-18.2,5.73,2.43,-24.5,27.6
2013-04-16 01:08:00,0.0,1.9189,0.0009,406.31,0.26,219.3,33.2,138.11,27.96,24.64,36.36,0.04,-272.76,-272.76,-40,558,-939,22.2,5.3,-18.5,22.4,5.4,-18.2,5.73,2.44,-24.4,27.6
2013-04-16 01:09:00,0.0,1.9193,0.0008,406.31,0.26,222.9,31.4,138.11,27.96,24.64,36.36,0.04,-272.76,-272.76,-40,558,-938,22.2,5.3,-18.6,22.4,5.4,-18.2,5.73,2.43,-24.4,27.6
2013-04-16 01:10:00,0.0,1.9186,0.0009,406.25,0.29,224.9,28.3,138.11,27.97,24.64,36.36,0.04,-272.76,-272.76,-40,558,-939,22.2,5.3,-18.6,22.4,5.4,-18.2,5.73,2.43,-24.4,27.6
2013-04-16 01:11:00,0.0,1.9184,0.0010,406.32,0.31,227.1,29.9,138.11,27.97,24.65,36.36,0.04,-272.76,-272.76,-40,558,-938,22.3,5.3,-18.6,22.4,5.4,-18.2,5.73,2.42,-24.4,27.6
2013-04-16 01:12:00,0.0,1.9185,0.0008,406.24,0.29,233.9,34.0,138.11,27.97,24.64,36.36,0.04,-272.76,-272.76,-40,558,-939,22.2,5.3,-18.6,22.4,5.4,-18.2,5.73,2.42,-24.4,27.6
2013-04-16 01:13:00,0.0,1.9187,0.0008,406.34,0.29,224.1,25.7,138.11,27.98,24.64,36.36,0.04,-272.76,-272.76,-40,558,-939,22.3,5.3,-18.5,22.4,5.4,-18.2,5.73,2.43,-24.4,27.7
2013-04-16 01:14:00,0.0,1.9185,0.0009,406.28,0.30,231.9,29.1,138.11,27.98,24.65,36.36,0.04,-272.76,-272.77,-40,558,-938,22.3,5.3,-18.5,22.4,5.4,-18.1,5.73,2.42,-24.4,27.6
2013-04-16 01:15:00,0.0,1.9186,0.0008,406.26,0.33,223.8,32.1,138.11,27.98,24.64,36.36,0.04,-272.75,-272.76,-40,558,-939,22.3,5.3,-18.5,22.4,5.4,-18.2,5.73,2.42,-24.4,27.6
2013-04-16 01:16:00,0.0,1.9191,0.0010,406.27,0.32,239.5,31.5,138.11,27.98,24.64,36.37,0.04,-272.76,-272.76,-40,558,-938,22.3,5.3,-18.4,22.4,5.4,-18.2,5.73,2.41,-24.4,27.7
2013-04-16 01:17:00,0.0,1.9189,0.0010,406.28,0.27,233.1,32.1,138.11,27.99,24.64,36.37,0.04,-272.76,-272.76,-40,558,-939,22.3,5.3,-18.4,22.4,5.4,-18.1,5.73,2.41,-24.4,27.7
2013-04-16 01:18:00,0.0,1.9185,0.0008,406.29,0.29,234.7,30.9,138.11,27.99,24.65,36.37,0.04,-272.76,-272.76,-40,558,-938,22.3,5.3,-18.4,22.4,5.5,-18.1,5.73,2.41,-24.4,27.7
2013-04-16 01:19:00,0.0,1.9187,0.0009,406.21,0.27,231.6,34.4,138.11,27.99,24.64,36.37,0.04,-272.76,-272.76,-40,558,-939,22.3,5.3,-18.4,22.4,5.5,-18.1,5.73,2.42,-24.4,27.7
2013-04-16 01:20:00,0.0,1.9188,0.0008,406.36,0.28,225.0,28.0,138.11,27.99,24.64,36.36,0.04,-272.76,-272.76,-40,558,-939,22.3,5.3,-18.4,22.4,5.5,-18.1,5.73,2.41,-24.4,27.7
2013-04-16 01:21:00,0.0,1.9188,0.0008,406.23,0.27,226.9,29.8,138.11,27.99,24.64,36.37,0.04,-272.76,-272.76,-40,558,-939,22.3,5.4,-18.3,22.4,5.5,-18.1,5.73,2.41,-24.4,27.7
2013-04-16 01:22:00,0.0,1.9186,0.0009,406.30,0.29,232.1,28.1,138.11,27.99,24.64,36.36,0.04,-272.76,-272.76,-40,558,-939,22.3,5.4,-18.4,22.4,5.5,-18.1,5.73,2.42,-24.4,27.7
2013-04-16 01:23:00,0.0,1.9188,0.0008,406.27,0.31,236.1,35.8,138.11,28.00,24.64,36.36,0.04,-272.76,-272.76,-40,558,-938,22.3,5.4,-18.4,22.4,5.5,-18.0,5.73,2.41,-24.3,27.7
2013-04-16 01:24:00,0.0,1.9185,0.0007,406.31,0.27,236.1,33.6,138.11,28.00,24.64,36.36,0.04,-272.76,-272.76,-40,558,-939,22.3,5.4,-18.3,22.4,5.5,-18.0,5.73,2.42,-24.3,27.7
2013-04-16 01:25:00,0.0,1.9183,0.0008,406.29,0.34,238.2,30.8,138.11,28.01,24.65,36.36,0.04,-272.76,-272.76,-40,558,-939,22.3,5.4,-18.3,22.4,5.5,-18.0,5.73,2.42,-24.3,27.7
2013-04-16 01:26:00,0.0,1.9186,0.0008,406.31,0.30,225.4,31.2,138.11,28.01,24.65,36.36,0.04,-272.76,-272.76,-40,558,-938,22.3,5.4,-18.2,22.4,5.5,-18.0,5.73,2.43,-24.3,27.7
2013-04-16 01:27:00,0.0,1.9188,0.0008,406.25,0.32,229.8,33.8,138.11,28.02,24.64,36.37,0.04,-272.76,-272.77,-40,558,-939,22.3,5.4,-18.2,22.4,5.5,-17.9,5.73,2.43,-24.3,27.7
2013-04-16 01:28:00,0.0,1.9188,0.0008,406.35,0.29,230.8,31.5,138.11,28.02,24.64,36.36,0.04,-272.77,-272.76,-40,558,-939,22.3,5.5,-18.1,22.4,5.5,-17.8,5.73,2.43,-24.3,27.7
2013-04-16 01:29:00,0.0,1.9190,0.0010,406.29,0.33,229.4,34.9,138.11,28.02,24.64,36.37,0.04,-272.76,-272.76,-40,558,-939,22.3,5.5,-18.1,22.4,5.6,-17.8,5.73,2.44,-24.3,27.8
2013-04-16 01:30:00,0.0,1.9186,0.0009,406.27,0.26,239.4,30.1,138.11,28.03,24.64,36.37,0.04,-272.76,-272.76,-40,558,-939,22.3,5.5,-18.0,22.5,5.6,-17.7,5.73,2.44,-24.3,27.8
2013-04-16 01:31:00,0.0,1.9186,0.0008,406.27,0.27,238.8,34.9,138.11,28.03,24.64,36.37,0.04,-272.76,-272.76,-40,558,-938,22.3,5.5,-18.0,22.4,5.6,-17.7,5.73,2.44,-24.3,27.8
2013-04-16 01:32:00,0.0,1.9183,0.0008,406.25,0.29,235.6,32.8,138.11,28.03,24.65,36.37,0.04,-272.76,-272.76,-40,558,-939,22.3,5.5,-18.1,22.4,5.6,-17.8,5.73,2.43,-24.3,27.8
2013-04-16 01:33:00,0.0,1.9186,0.0010,406.23,0.29,229.4,28.8,138.11,28.03,24.64,36.37,0.04,-272.76,-272.76,-40,558,-939,22.3,5.5,-18.1,22.5,5.6,-17.7,5.73,2.43,-24.3,27.8
2013-04-16 01:34:00,0.0,1.9190,0.0010,406.11,0.31,237.7,29.3,138.11,28.04,24.64,36.37,0.04,-272.76,-272.76,-40,558,-939,22.3,5.5,-18.1,22.5,5.6,-17.8,5.73,2.42,-24.3,27.8
2013-04-16 01:35:00,0.0,1.9185,0.0009,406.23,0.30,231.9,26.2,138.11,28.04,24.64,36.37,0.04,-272.76,-272.76,-40,558,-939,22.3,5.4,-18.2,22.5,5.5,-17.9,5.73,2.42,-24.3,27.8
2013-04-16 01:36:00,0.0,1.9183,0.0008,406.16,0.25,240.3,25.0,138.11,28.04,24.65,36.37,0.04,-272.76,-272.76,-40,558,-939,22.3,5.4,-18.2,22.5,5.5,-17.9,5.73,2.41,-24.3,27.8
2013-04-16 01:37:00,0.0,1.9182,0.0008,406.23,0.27,244.5,37.9,138.11,28.05,24.65,36.37,0.04,-272.76,-272.76,-40,558,-939,22.3,5.4,-18.3,22.5,5.5,-17.9,5.73,2.41,-24.3,27.8
2013-04-16 01:38:00,0.0,1.9184,0.0009,406.29,0.28,241.8,28.2,138.11,28.05,24.65,36.36,0.04,-272.76,-272.77,-40,558,-939,22.3,5.4,-18.3,22.5,5.5,-18.0,5.73,2.41,-24.3,27.8
2013-04-16 01:39:00,0.0,1.9184,0.0009,406.23,0.25,248.8,32.9,138.11,28.06,24.64,36.37,0.04,-272.76,-272.76,-40,558,-939,22.3,5.4,-18.3,22.5,5.5,-18.0,5.73,2.40,-24.3,27.8
2013-04-16 01:40:00,0.0,1.9182,0.0008,406.22,0.33,237.3,34.9,138.11,28.06,24.65,36.37,0.04,-272.76,-272.77,-40,559,-939,22.4,5.3,-18.4,22.5,5.5,-18.0,5.73,2.41,-24.2,27.8
2013-04-16 01:41:00,0.0,1.9186,0.0008,406.20,0.31,243.7,26.4,138.11,28.07,24.64,36.37,0.04,-272.76,-272.77,-40,559,-939,22.4,5.3,-18.4,22.5,5.4,-18.0,5.73,2.41,-24.3,27.8
2013-04-16 01:42:00,0.0,1.9185,0.0009,406.24,0.28,244.8,31.2,138.11,28.07,24.64,36.37,0.04,-272.76,-272.76,-40,559,-939,22.4,5.3,-18.4,22.5,5.4,-18.0,5.73,2.41,-24.3,27.8
2013-04-16 01:43:00,0.0,1.9182,0.0009,406.24,0.31,246.5,32.6,138.11,28.08,24.64,36.36,0.04,-272.75,-272.76,-40,559,-939,22.3,5.3,-18.4,22.5,5.4,-18.1,5.73,2.43,-24.2,27.8
2013-04-16 01:44:00,0.0,1.9186,0.0008,406.16,0.24,250.5,31.1,138.11,28.08,24.64,36.37,0.04,-272.76,-272.76,-40,559,-939,22.3,5.3,-18.4,22.5,5.4,-18.0,5.73,2.42,-24.3,27.8
2013-04-16 01:45:00,0.0,1.9181,0.0008,406.27,0.27,230.3,33.6,138.11,28.08,24.64,36.37,0.04,-272.76,-272.76,-40,559,-940,22.3,5.3,-18.5,22.5,5.4,-18.1,5.73,2.43,-24.3,27.8
2013-04-16 01:46:00,0.0,1.9183,0.0010,406.22,0.30,241.7,35.9,138.11,28.09,24.64,36.37,0.04,-272.75,-272.75,-40,559,-939,22.4,5.3,-18.5,22.5,5.4,-18.2,5.73,2.43,-24.2,27.8
2013-04-16 01:47:00,0.0,1.9181,0.0009,406.24,0.32,251.1,34.2,138.11,28.09,24.65,36.37,0.04,-272.77,-272.76,-40,559,-939,22.4,5.3,-18.5,22.5,5.4,-18.2,5.73,2.44,-24.3,27.8
2013-04-16 01:48:00,0.0,1.9182,0.0009,406.26,0.26,237.0,22.5,138.11,28.09,24.65,36.37,0.04,-272.76,-272.76,-40,559,-939,22.4,5.3,-18.5,22.5,5.4,-18.2,5.73,2.43,-24.3,27.8
2013-04-16 01:49:00,0.0,1.9180,0.0009,406.18,0.30,238.3,32.2,138.11,28.10,24.65,36.37,0.04,-272.76,-272.76,-40,559,-939,22.4,5.3,-18.5,22.5,5.3,-18.2,5.73,2.44,-24.2,27.8
2013-04-16 01:50:00,0.0,1.9181,0.0009,406.30,0.32,238.7,30.3,138.11,28.10,24.65,36.37,0.04,-272.76,-272.76,-40,559,-939,22.3,5.2,-18.6,22.5,5.3,-18.2,5.73,2.43,-24.3,27.8
2013-04-16 01:51:00,0.0,1.9179,0.0009,406.18,0.32,241.9,27.4,138.11,28.11,24.65,36.37,0.04,-272.76,-272.76,-40,559,-939,22.4,5.2,-18.6,22.5,5.3,-18.3,5.73,2.43,-24.2,27.8
2013-04-16 01:52:00,0.0,1.9177,0.0008,406.27,0.33,247.0,30.4,138.11,28.11,24.65,36.37,0.04,-272.76,-272.76,-40,559,-939,22.4,5.2,-18.6,22.5,5.3,-18.3,5.73,2.43,-24.2,27.8
2013-04-16 01:53:00,0.0,1.9181,0.0009,406.24,0.32,239.9,29.9,138.11,28.11,24.65,36.37,0.04,-272.76,-272.76,-40,559,-939,22.4,5.2,-18.6,22.5,5.3,-18.3,5.73,2.42,-24.2,27.8
2013-04-16 01:54:00,0.0,1.9179,0.0009,406.21,0.31,245.3,33.2,138.11,28.12,24.65,36.37,0.04,-272.76,-272.77,-40,559,-939,22.4,5.2,-18.6,22.6,5.3,-18.3,5.73,2.41,-24.2,27.9
2013-04-16 01:55:00,0.0,1.9178,0.0009,406.27,0.32,243.8,30.8,138.11,28.12,24.65,36.36,0.04,-272.76,-272.76,-40,559,-939,22.4,5.2,-18.6,22.6,5.3,-18.2,5.73,2.42,-24.2,27.9
2013-04-16 01:56:00,0.0,1.9184,0.0009,406.20,0.31,247.5,37.1,138.11,28.12,24.64,36.38,0.04,-272.76,-272.76,-40,559,-940,22.4,5.2,-18.6,22.6,5.3,-18.2,5.73,2.41,-24.2,27.9
2013-04-16 01:57:00,0.0,1.9180,0.0012,406.19,0.31,246.6,30.1,138.11,28.12,24.64,36.37,0.04,-272.76,-272.76,-40,559,-939,22.4,5.3,-18.5,22.6,5.3,-18.2,5.73,2.41,-24.2,27.9
2013-04-16 01:58:00,0.0,1.9179,0.0010,406.06,0.29,249.1,36.1,138.11,28.13,24.65,36.38,0.04,-272.76,-272.76,-40,559,-939,22.4,5.3,-18.4,22.6,5.4,-18.1,5.73,2.41,-24.2,27.8
2013-04-16 01:59:00,0.0,1.9177,0.0009,406.18,0.28,249.1,28.3,138.11,28.13,24.65,36.37,0.04,-272.76,-272.76,-40,559,-939,22.4,5.3,-18.4,22.6,5.4,-18.1,5.73,2.41,-24.2,27.9
2013-04-16 02:00:00,0.0,1.9179,0.0009,406.08,0.33,243.7,33.6,138.11,28.13,24.64,36.37,0.04,-272.76,-272.76,-40,559,-939,22.5,5.3,-18.4,22.6,5.4,-18.0,5.73,2.41,-24.2,27.9
2013-04-16 02:01:00,0.0,1.9178,0.0008,406.09,0.29,254.0,30.6,138.11,28.14,24.64,36.38,0.04,-272.76,-272.76,-40,559,-940,22.5,5.3,-18.3,22.6,5.4,-18.0,5.73,2.41,-24.2,27.9
2013-04-16 02:02:00,0.0,1.9179,0.0010,406.17,0.30,250.4,40.7,138.11,28.14,24.64,36.38,0.04,-272.76,-272.76,-40,559,-939,22.5,5.3,-18.3,22.6,5.5,-17.9,5.73,2.42,-24.2,27.9
2013-04-16 02:03:00,0.0,1.9176,0.0010,406.22,0.32,243.7,34.4,138.11,28.14,24.65,36.37,0.04,-272.76,-272.76,-41,559,-939,22.5,5.3,-18.3,22.6,5.4,-18.0,5.73,2.42,-24.2,27.9
2013-04-16 02:04:00,0.0,1.9177,0.0010,406.29,0.31,247.7,31.4,138.11,28.15,24.65,36.37,0.04,-272.76,-272.76,-40,559,-940,22.5,5.3,-18.3,22.6,5.4,-18.0,5.73,2.43,-24.2,27.9
2013-04-16 02:05:00,0.0,1.9178,0.0008,406.14,0.31,245.9,30.2,138.11,28.15,24.64,36.38,0.04,-272.76,-272.76,-40,559,-939,22.5,5.3,-18.4,22.6,5.4,-18.0,5.73,2.44,-24.2,27.9
2013-04-16 02:06:00,0.0,1.9178,0.0008,406.16,0.32,250.5,32.7,138.11,28.16,24.64,36.37,0.04,-272.76,-272.76,-40,559,-940,22.5,5.3,-18.3,22.7,5.4,-18.0,5.73,2.44,-24.2,27.9
2013-04-16 02:07:00,0.0,1.9178,0.0011,406.16,0.32,244.5,39.2,138.11,28.16,24.64,36.38,0.04,-272.76,-272.76,-40,559,-940,22.5,5.3,-18.4,22.7,5.4,-18.0,5.73,2.44,-24.2,27.9
2013-04-16 02:08:00,0.0,1.9176,0.0010,406.22,0.29,236.1,33.8,138.11,28.17,24.65,36.37,0.04,-272.76,-272.76,-41,559,-939,22.5,5.3,-18.3,22.7,5.4,-18.0,5.73,2.44,-24.1,27.9
2013-04-16 02:09:00,0.0,1.9175,0.0009,406.17,0.30,254.0,38.4,138.11,28.17,24.65,36.37,0.04,-272.76,-272.76,-41,559,-940,22.6,5.3,-18.3,22.7,5.4,-18.0,5.73,2.43,-24.1,27.9
2013-04-16 02:10:00,0.0,1.9174,0.0010,406.15,0.32,241.9,32.1,138.11,28.18,24.65,36.37,0.04,-272.76,-272.76,-41,559,-939,22.6,5.3,-18.3,22.7,5.4,-18.0,5.73,2.43,-24.1,27.9
2013-04-16 02:11:00,0.0,1.9175,0.0008,406.19,0.29,252.2,29.0,138.11,28.18,24.65,36.37,0.04,-272.76,-272.76,-40,559,-939,22.6,5.3,-18.4,22.7,5.4,-18.0,5.73,2.42,-24.1,27.9
2013-04-16 02:12:00,0.0,1.9174,0.0010,406.14,0.26,254.1,30.6,138.11,28.19,24.65,36.37,0.04,-272.76,-272.76,-40,560,-940,22.6,5.2,-18.4,22.7,5.4,-18.0,5.73,2.41,-24.1,28.0
2013-04-16 02:13:00,0.0,1.9176,0.0009,406.19,0.26,241.4,34.7,138.11,28.19,24.65,36.38,0.04,-272.76,-272.76,-40,559,-939,22.6,5.3,-18.4,22.7,5.4,-18.0,5.73,2.41,-24.1,28.0
2013-04-16 02:14:00,0.0,1.9175,0.0008,406.24,0.30,239.2,36.8,138.11,28.20,24.65,36.38,0.04,-272.76,-272.76,-40,559,-940,22.6,5.3,-18.3,22.7,5.4,-18.0,5.73,2.40,-24.1,28.0
2013-04-16 02:15:00,0.0,1.9174,0.0009,406.23,0.29,240.3,36.7,138.11,28.20,24.65,36.37,0.04,-272.76,-272.76,-41,560,-940,22.6,5.3,-18.3,22.7,5.4,-18.0,5.73,2.40,-24.1,28.0
2013-04-16 02:16:00,0.0,1.9172,0.0008,406.11,0.29,257.0,32.7,138.10,28.20,24.65,36.37,0.04,-272.76,-272.76,-41,560,-939,22.6,5.3,-18.3,22.8,5.4,-18.0,5.73,2.41,-24.1,28.0